Location: Ravensburg
(48.5621°N, 13.4088°E)
Time: 18:38:49
(UTC+02:00)

Envisat - Visible Passes

Search period start: 18 July 2018 00:00
Search period end: 28 July 2018 00:00
Orbit: 764 x 766 km, 98.2° (Epoch: 18 July)

Date Brightness Start Highest point End Pass type
(mag) Time Alt. Az. Time Alt. Az. Time Alt. Az.
18 Jul 5.7 21:45:53 10° WSW 21:48:35 14° W 21:51:18 10° NW visible
21 Jul 5.6 21:33:53 10° SW 21:37:16 18° W 21:40:42 10° NW visible
23 Jul 6.1 22:02:33 10° W 22:03:13 10° W 22:03:54 10° WNW visible
26 Jul 5.8 21:49:32 10° WSW 21:51:53 13° W 21:54:14 10° WNW visible
